Location: F?ge?el
(45.8833°N, 22.5833°E)
Time: 05:52:14
(UTC+00:00)

Cosmos 1140 Rocket - Pass Details

Date: 17 November 2025
Orbit: 740 x 761 km, 74.1° (Epoch: 04 December)

Event Time Altitude Azimuth Distance (km) Brightness Sun altitude
Rises 15:52:48 0° 208° (SSW) 3,198 7.5 -9.9°
Reaches altitude 10° 15:55:10 10° 211° (SSW) 2,274 6.7 -10.3°
Maximum altitude 16:00:18 66° 294° (WNW) 821 3.9 -11.2°
Drops below altitude 10° 16:05:26 10° 17° (NNE) 2,276 5.6 -12.1°
Sets 16:07:49 0° 20° (NNE) 3,201 6.4 -12.5°
